Regional Weather Roundup
Issued by NWS

Home | Current Version | Previous Version | Graphics & Text | Print | Product List | Glossary On
Versions: 1 2 3 4 5 6 7 8 9 10 11 12 13 14 15 16 17 18 19 20 21 22 23 24 25 26 27 28 29 30 31 32 33 34 35 36 37 38 39 40 41 42 43 44 45 46 47 48 49 50
866
ASUS45 KABQ 230401
RWRNM
NEW MEXICO REGIONAL WEATHER ROUNDUP
NATIONAL WEATHER SERVICE ALBUQUERQUE NM
1000 PM MDT TUE AUG 22 2017

NOTE: "FAIR" MEANS FEW OR NO CLOUDS BELOW 12,000 FEET AGL WITH NO
       SIGNIFICANT WEATHER OR OBSTRUCTIONS TO VISION.

      THIS PRODUCT IS RELEASED AS TWO VERSIONS.  ONE VERSION NEAR
      THE TOP OF THE HOUR CONTAINING PRELIMINARY DATA FROM ALBUQUERQUE
      AND OTHER STATIONS.  A FINAL VERSION WITH ADDITIONAL DATA IS
      ISSUED ABOUT 10 MINUTES AFTER THE HOUR.

NMZ501-503-504-510>518-230500-
NORTHWEST PLATEAU/NORTHCENTRAL MOUNTAINS

CITY           SKY/WX    TMP DP  RH WIND       PRES   REMARKS
FARMINGTON     FAIR      74  41  30 N5        30.23R
LOS ALAMOS     FAIR      64  52  65 CALM      30.44R
SANTA FE       FAIR      64  55  72 NE5       30.36R
TAOS           LGT RAIN  58  52  80 SE10      30.49R
ANGEL FIRE     RAIN      51  49  95 S8        30.56R

$$
NMZ402-403-502-505>509-230500-
WESTCENTRAL MOUNTAINS/SOUTHWEST MOUNTAINS

CITY           SKY/WX    TMP DP  RH WIND       PRES   REMARKS
GALLUP         FAIR      63  37  38 NE5       30.32R
GRANTS         MOCLDY    70  47  44 S3        30.35R
SILVER CITY    MOCLDY    66  54  63 NW5       30.27R

$$
NMZ407-409-411-412-230500-
SOUTHERN DESERTS

CITY           SKY/WX    TMP DP  RH WIND       PRES   REMARKS
DEMING         FAIR      81  59  47 SW3       30.16R
LAS CRUCES     FAIR      79  54  41 SE5       30.19R
HOLLOMAN AFB   MOCLDY    82  62  50 S9        30.16R
ALAMOGORDO     FAIR      79  59  50 CALM      30.17R
T OR C         FAIR      79  57  46 CALM      30.20R

$$
NMZ519>523-230500-
CENTRAL VALLEYS/CENTRAL HIGHLANDS

CITY           SKY/WX    TMP DP  RH WIND       PRES   REMARKS
ALBUQUERQUE    CLOUDY    72  57  59 E23G36    30.27R
DOUBLE EAGLE   MOCLDY    70  55  60 SE15      30.32R
CLINES CORNERS CLOUDY    60  57  89 E15G25    30.44R
BELEN          FAIR      76  55  47 E7G17     30.26R
SOCORRO        MOCLDY    78  55  44 CALM      30.23R

$$
NMZ524>526-539-540-230500-
SOUTHCENTRAL MOUNTAINS

CITY           SKY/WX    TMP DP  RH WIND       PRES   REMARKS
RUIDOSO        FAIR      63  59  88 SE9       30.43R

$$
NMZ527>531-230500-
NORTHEAST HIGHLANDS/NORTHEAST PLAINS

CITY           SKY/WX    TMP DP  RH WIND       PRES   REMARKS
LAS VEGAS      TSTM      57  54  89 NE12      30.44S FOG
RATON          FAIR      56  54  93 N8        30.38R
CLAYTON        FAIR      58  58 100 W5        30.32R

$$
NMZ532>537-230500-
EASTCENTRAL PLAINS

CITY           SKY/WX    TMP DP  RH WIND       PRES   REMARKS
SANTA ROSA     FAIR      65  62  89 NE5       30.30S
TUCUMCARI      CLOUDY    70  67  90 N3        30.24R
CANNON AFB     FAIR      67  67 100 NE9       30.27R
CLOVIS AIRPORT FAIR      66  65  96 N8        30.26R

$$
NMZ028-029-538-230500-
SOUTHEAST PLAINS

CITY           SKY/WX    TMP DP  RH WIND       PRES   REMARKS
ROSWELL        FAIR      74  62  66 NE10      30.20R
ARTESIA        FAIR      77  64  65 N12       30.17S
CARLSBAD       FAIR      79  69  71 N8        30.12R
HOBBS          FAIR      70  66  88 E13       30.18R


$$




USA.gov is the U.S. government's official web portal to all federal, state and local government web resources and services.